• In Uzbekistan
  • List of Countries
  • For 7 days
  • Water Temperature
  • Weather Map
  • Weather Widgets
  • user-avatar
    Login

    Hourly Weather Edinburgh

    Today, 19 November, Tuesday

    Time Temperature Precipitation Wind Pressure Humidity
    00:00 +1°C° 0 mm 1 mps 759 mmHg 79%
    01:00 +1°C° 0 mm 1 mps 759 mmHg 79%
    02:00 +1°C° 0 mm 1 mps 759 mmHg 78%
    03:00 +1°C° 0 mm 1 mps 758 mmHg 77%
    04:00 +1°C° 0 mm 1 mps 758 mmHg 76%
    05:00 +1°C° 0 mm 1 mps 758 mmHg 75%
    06:00 +1°C° 0 mm 1 mps 758 mmHg 74%
    07:00 +1°C° 0 mm 1 mps 757 mmHg 74%
    08:00 +2°C° 0 mm 1 mps 757 mmHg 73%
    09:00 +1°C° 0 mm 2 mps 757 mmHg 73%
    10:00 +2°C° 0 mm 2 mps 757 mmHg 71%
    11:00 +3°C° 0 mm 2 mps 757 mmHg 69%
    12:00 +4°C° 0 mm 2 mps 757 mmHg 67%
    13:00 +3°C° 0 mm 2 mps 756 mmHg 68%
    14:00 +3°C° 0 mm 2 mps 756 mmHg 69%
    15:00 +3°C° 0 mm 2 mps 755 mmHg 70%
    16:00 +3°C° 0 mm 2 mps 755 mmHg 71%
    17:00 +2°C° 0 mm 2 mps 755 mmHg 72%
    18:00 +2°C° 0 mm 2 mps 755 mmHg 73%
    19:00 +2°C° 0 mm 2 mps 755 mmHg 74%
    20:00 +2°C° 0 mm 2 mps 755 mmHg 74%
    21:00 +2°C° 0 mm 2 mps 755 mmHg 75%
    22:00 +2°C° 0 mm 2 mps 755 mmHg 76%
    23:00 +2°C° 0 mm 2 mps 754 mmHg 78%

    Tomorrow, 20 November, Wednesday

    Time Temperature Precipitation Wind Pressure Humidity
    00:00 +3°C° 0 mm 2 mps 754 mmHg 79%
    01:00 +3°C° 0.1 mm 2 mps 754 mmHg 81%
    02:00 +3°C° 0.1 mm 2 mps 754 mmHg 82%
    03:00 +3°C° 0.1 mm 2 mps 754 mmHg 84%
    04:00 +3°C° 0 mm 2 mps 753 mmHg 84%
    05:00 +3°C° 0 mm 2 mps 753 mmHg 85%
    06:00 +2°C° 0 mm 3 mps 753 mmHg 86%
    07:00 +2°C° 0 mm 3 mps 753 mmHg 87%
    08:00 +2°C° 0 mm 3 mps 753 mmHg 88%
    09:00 +2°C° 0 mm 3 mps 753 mmHg 88%
    10:00 +3°C° 0 mm 3 mps 753 mmHg 88%
    11:00 +3°C° 0 mm 3 mps 753 mmHg 87%
    12:00 +4°C° 0 mm 3 mps 753 mmHg 86%
    13:00 +4°C° 0 mm 3 mps 753 mmHg 87%
    14:00 +4°C° 0 mm 3 mps 753 mmHg 87%
    15:00 +4°C° 0 mm 3 mps 753 mmHg 88%
    16:00 +3°C° 0 mm 3 mps 753 mmHg 88%
    17:00 +3°C° 0 mm 4 mps 753 mmHg 88%
    18:00 +1°C° 0 mm 4 mps 753 mmHg 88%
    19:00 +1°C° 0 mm 4 mps 753 mmHg 88%
    20:00 0°C° 0 mm 4 mps 753 mmHg 87%
    21:00 0°C° 0 mm 4 mps 753 mmHg 87%
    22:00 0°C° 0 mm 4 mps 753 mmHg 86%
    23:00 0°C° 0 mm 4 mps 752 mmHg 86%

    Day after tomorrow, 21 November, Thursday

    Time Temperature Precipitation Wind Pressure Humidity
    00:00 -1°C° 0 mm 4 mps 752 mmHg 86%
    01:00 -1°C° 0 mm 4 mps 752 mmHg 86%
    02:00 -1°C° 0 mm 4 mps 752 mmHg 86%
    03:00 -1°C° 0 mm 4 mps 751 mmHg 86%
    04:00 -1°C° 0 mm 4 mps 751 mmHg 86%
    05:00 -1°C° 0 mm 4 mps 751 mmHg 86%
    06:00 0°C° 0 mm 5 mps 751 mmHg 85%
    07:00 0°C° 0 mm 5 mps 750 mmHg 84%
    08:00 0°C° 0 mm 5 mps 750 mmHg 84%
    09:00 +1°C° 0 mm 5 mps 750 mmHg 83%
    10:00 +2°C° 0 mm 5 mps 750 mmHg 81%
    11:00 +2°C° 0 mm 5 mps 750 mmHg 79%
    12:00 +3°C° 0 mm 5 mps 749 mmHg 77%
    13:00 +3°C° 0 mm 5 mps 749 mmHg 79%
    14:00 +3°C° 0 mm 5 mps 748 mmHg 80%
    15:00 +3°C° 0 mm 5 mps 748 mmHg 82%
    16:00 +3°C° 0.2 mm 5 mps 748 mmHg 85%
    17:00 +3°C° 0.2 mm 5 mps 747 mmHg 88%
    18:00 +3°C° 0.2 mm 5 mps 747 mmHg 90%
    19:00 +3°C° 0.5 mm 5 mps 747 mmHg 91%
    20:00 +3°C° 0.5 mm 5 mps 746 mmHg 92%
    21:00 +5°C° 0.5 mm 4 mps 746 mmHg 92%
    22:00 +5°C° 0.2 mm 4 mps 745 mmHg 92%
    23:00 +5°C° 0.2 mm 4 mps 745 mmHg 92%

    22 November, Friday

    Time Temperature Precipitation Wind Pressure Humidity
    00:00 +5°C° 0.2 mm 4 mps 744 mmHg 92%
    01:00 +5°C° 0.1 mm 3 mps 744 mmHg 92%
    02:00 +5°C° 0.1 mm 3 mps 743 mmHg 92%
    03:00 +4°C° 0.1 mm 3 mps 743 mmHg 92%
    04:00 +4°C° 0 mm 3 mps 742 mmHg 92%
    05:00 +4°C° 0 mm 3 mps 742 mmHg 91%
    06:00 +4°C° 0 mm 3 mps 742 mmHg 91%
    07:00 +4°C° 0.2 mm 4 mps 743 mmHg 91%
    08:00 +4°C° 0.2 mm 4 mps 743 mmHg 91%
    09:00 +4°C° 0.2 mm 4 mps 743 mmHg 91%
    10:00 +5°C° 0.1 mm 4 mps 744 mmHg 88%
    11:00 +6°C° 0.1 mm 4 mps 744 mmHg 86%
    12:00 +8°C° 0.1 mm 3 mps 745 mmHg 84%
    13:00 +8°C° 0.1 mm 3 mps 745 mmHg 85%
    14:00 +7°C° 0.1 mm 3 mps 745 mmHg 86%
    15:00 +6°C° 0.1 mm 4 mps 746 mmHg 87%
    16:00 +7°C° 0.2 mm 3 mps 746 mmHg 88%
    17:00 +5°C° 0.2 mm 3 mps 746 mmHg 88%
    18:00 +5°C° 0.2 mm 3 mps 747 mmHg 89%
    19:00 +5°C° 0 mm 3 mps 747 mmHg 90%
    20:00 +4°C° 0 mm 3 mps 747 mmHg 91%
    21:00 +4°C° 0 mm 3 mps 747 mmHg 92%
    22:00 +4°C° 0.2 mm 3 mps 747 mmHg 92%
    23:00 +5°C° 0.2 mm 3 mps 747 mmHg 92%

    23 November, Saturday

    Time Temperature Precipitation Wind Pressure Humidity
    00:00 +5°C° 0.2 mm 3 mps 747 mmHg 92%
    01:00 +5°C° 0 mm 3 mps 747 mmHg 93%
    02:00 +5°C° 0 mm 3 mps 747 mmHg 94%
    03:00 +5°C° 0 mm 3 mps 747 mmHg 94%
    04:00 +5°C° 0.2 mm 3 mps 747 mmHg 95%
    05:00 +7°C° 0.2 mm 3 mps 747 mmHg 95%
    06:00 +7°C° 0.2 mm 3 mps 747 mmHg 95%
    07:00 +7°C° 0.4 mm 3 mps 747 mmHg 95%
    08:00 +7°C° 0.4 mm 3 mps 747 mmHg 95%
    09:00 +7°C° 0.4 mm 3 mps 747 mmHg 95%
    10:00 +7°C° 0.5 mm 3 mps 747 mmHg 95%
    11:00 +7°C° 0.5 mm 3 mps 747 mmHg 94%
    12:00 +7°C° 0.5 mm 3 mps 747 mmHg 94%
    13:00 +7°C° 0.3 mm 3 mps 747 mmHg 94%
    14:00 +7°C° 0.3 mm 3 mps 747 mmHg 95%
    15:00 +7°C° 0.3 mm 2 mps 747 mmHg 95%
    16:00 +7°C° 0.3 mm 2 mps 747 mmHg 96%
    17:00 +7°C° 0.3 mm 2 mps 747 mmHg 96%
    18:00 +8°C° 0.3 mm 1 mps 747 mmHg 97%
    19:00 +8°C° 0.3 mm 1 mps 747 mmHg 97%
    20:00 +8°C° 0.3 mm 1 mps 747 mmHg 97%
    21:00 +7°C° 0.3 mm 0 mps 747 mmHg 97%
    22:00 +7°C° 0.3 mm 0 mps 747 mmHg 97%
    23:00 +8°C° 0.3 mm 1 mps 747 mmHg 97%

    24 November, Sunday

    Time Temperature Precipitation Wind Pressure Humidity
    00:00 +8°C° 0.3 mm 1 mps 747 mmHg 97%
    01:00 +8°C° 0.1 mm 1 mps 748 mmHg 97%
    02:00 +7°C° 0.1 mm 1 mps 748 mmHg 97%
    03:00 +7°C° 0.1 mm 1 mps 748 mmHg 97%
    04:00 +7°C° 0.1 mm 1 mps 748 mmHg 96%
    05:00 +6°C° 0.1 mm 2 mps 748 mmHg 96%
    06:00 +6°C° 0.1 mm 2 mps 748 mmHg 96%
    07:00 +6°C° 0.3 mm 2 mps 748 mmHg 96%
    08:00 +6°C° 0.3 mm 2 mps 749 mmHg 96%
    09:00 +6°C° 0.3 mm 2 mps 749 mmHg 95%
    10:00 +6°C° 0.1 mm 2 mps 749 mmHg 93%
    11:00 +7°C° 0.1 mm 2 mps 749 mmHg 91%
    12:00 +7°C° 0.1 mm 2 mps 750 mmHg 89%
    13:00 +7°C° 0 mm 2 mps 749 mmHg 90%
    14:00 +8°C° 0 mm 1 mps 749 mmHg 90%
    15:00 +8°C° 0 mm 1 mps 749 mmHg 91%
    16:00 +7°C° 0 mm 1 mps 749 mmHg 92%
    17:00 +6°C° 0 mm 1 mps 749 mmHg 93%
    18:00 +6°C° 0 mm 1 mps 749 mmHg 93%
    19:00 +5°C° 0 mm 1 mps 749 mmHg 94%
    20:00 +4°C° 0 mm 2 mps 749 mmHg 94%
    21:00 +4°C° 0 mm 2 mps 749 mmHg 94%
    22:00 +4°C° 0 mm 2 mps 748 mmHg 94%
    23:00 +4°C° 0 mm 2 mps 748 mmHg 94%
    Show more